Regional Weather Roundup
Issued by NWS

Home | Current Version | Previous Version | Graphics & Text | Print | Product List | Glossary On
Versions: 1 2 3 4 5 6 7 8 9 10 11 12 13 14 15 16 17 18 19 20 21 22 23 24 25 26 27 28 29 30 31 32 33 34 35 36 37 38 39 40 41 42 43 44 45 46 47 48 49 50
000
ASUS43 KOAX 271002
RWRNE

WEATHER ROUNDUP FOR NEBRASKA
NATIONAL WEATHER SERVICE OMAHA NE
500 AM CDT FRI MAR 27 2015

NOTES: SATELLITE DATA IS BEING USED TO AUGMENT CLOUD COVER ABOVE
       12000 FEET.
       "FAIR" INDICATES FEW OR NO CLOUDS BELOW 12,000 FEET WITH NO
       SIGNIFICANT WEATHER AND/OR OBSTRUCTIONS TO VISIBILITY.

  * THESE STATIONS DO NOT REPORT WEATHER SUCH AS RAIN...SNOW OR FOG.

NEZ001>004-019>022-054>056-271100-
NEBRASKA PANHANDLE

CITY           SKY/WX    TMP DP  RH WIND       PRES   REMARKS
SCOTTSBLUFF    CLOUDY    37  34  89 E12       30.15F WCI  29
ALLIANCE       CLOUDY    36  32  85 S9        30.14F WCI  29
CHADRON        CLOUDY    39  31  72 S6        30.10F WCI  35
KIMBALL        CLOUDY    40  33  75 S3        30.11F
SIDNEY         CLOUDY    37  30  75 E3        30.16F
$$

NEZ057>060-069>072-079>082-271100-
SOUTHWEST NEBRASKA

CITY           SKY/WX    TMP DP  RH WIND       PRES   REMARKS
NORTH PLATTE   CLOUDY    30  28  92 E5        30.22F WCI  25
IMPERIAL       FLURRIES  32  30  92 SE6       30.20S WCI  26
MCCOOK         LGT SNOW  32  29  88 E3        30.24F FOG
$$

NEZ005>010-023>029-035>040-094-271100-
NORTH CENTRAL NEBRASKA

CITY           SKY/WX    TMP DP  RH WIND       PRES   REMARKS
VALENTINE      CLOUDY    32  26  78 S5        30.20F WCI  27
AINSWORTH      CLOUDY    30  28  92 CALM      30.22S
BROKEN BOW     CLOUDY    32  26  78 CALM      30.23R
ORD            MOCLDY    27  22  81 CALM      30.24S
$$

NEZ041-046>049-061>064-073>077-083>087-271100-
SOUTH CENTRAL NEBRASKA

CITY           SKY/WX    TMP DP  RH WIND       PRES   REMARKS
GRAND ISLAND   PTCLDY    24  21  88 NW6       30.27R WCI  17
AURORA         CLEAR     26  25  96 N5        30.25S WCI  20
HASTINGS       CLOUDY    30  25  81 N10       30.24R WCI  21
HEBRON         PTCLDY    29  27  91 N7        30.26R WCI  22
HOLDREGE       CLOUDY    32  24  74 NW3       30.25R
KEARNEY *      CLOUDY    30  25  80 N5        30.25S WCI  25
$$

NEZ011>018-030>034-042>045-271100-
NORTHEAST NEBRASKA

CITY           SKY/WX    TMP DP  RH WIND       PRES   REMARKS
NORFOLK        PTCLDY    24  17  74 N8        30.25S WCI  15
ALBION         FAIR      24  19  80 CALM      30.25S
BLAIR          CLEAR     26  18  70 N8        30.23S WCI  18
COLUMBUS *     PTCLDY    21  12  68 NW6       30.27S WCI  14
FREMONT        CLEAR     25  20  83 NW5       30.26S WCI  19
TEKAMAH        CLEAR     20  16  84 NW22      30.26S WCI   3
$$

NEZ050>053-065>068-078-088>093-271100-
SOUTHEAST NEBRASKA

CITY           SKY/WX    TMP DP  RH WIND       PRES   REMARKS
LINCOLN        CLEAR     24  20  84 N10       30.26R WCI  14
OMAHA EPPLEY   PTCLDY    25  18  74 N7        30.25R WCI  17
BEATRICE       MOCLDY    30  28  92 NE9       30.24R WCI  22
FALLS CITY     CLOUDY    32  25  75 N6        30.22R WCI  26
NEBRASKA CITY  CLEAR     28  24  84 NE10      30.23R WCI  19
PLATTSMOUTH    PTCLDY    27  17  67 N8        30.24R WCI  18
$$

NEZ044-045-051>053-067-271100-
OMAHA AREA

CITY           SKY/WX    TMP DP  RH WIND       PRES   REMARKS
OMAHA EPPLEY   PTCLDY    25  18  74 N7        30.25R WCI  17
BLAIR          CLEAR     26  18  70 N8        30.23S WCI  18
FREMONT        CLEAR     25  20  83 NW5       30.26S WCI  19
OFFUTT AFB     CLEAR     28  18  68 N6        30.24S WCI  21
PLATTSMOUTH    PTCLDY    27  17  67 N8        30.24R WCI  18
WAHOO          FAIR      23  19  83 N6        30.25S WCI  16
$$


USA.gov is the U.S. government's official web portal to all federal, state and local government web resources and services.